Overview Statistics Trail Chart Weather Telemetry Raw packets
 

This is the latest recevied weather packets stored in our database for station/object YD2CLX-11. If no packets are shown the sender has not sent any weather packets the latest 10 day(s).

<< 45 46 47 48 49 50 51 >>
Time Temp. Humidity Pressure Rain* Wind** Luminosity Snow
1787901809 35.56° C 36% 997.2 hPa - - - -
1787901208 36.11° C 35% 997.3 hPa - - - -
1787900607 35.56° C 36% 997.4 hPa - - - -
1787900006 36.11° C 36% 997.4 hPa - - - -
1787899406 35.56° C 36% 997.5 hPa - - - -
1787898805 35° C 36% 997.6 hPa - - - -
1787898204 35.56° C 36% 997.7 hPa - - - -
1787897603 34.44° C 38% 997.8 hPa - - - -
1787897002 35° C 38% 997.9 hPa - - - -
1787896401 35° C 37% 998.1 hPa - - - -
1787895800 36.11° C 37% 998.2 hPa - - - -
1787895200 35.56° C 37% 998.6 hPa - - - -
1787894599 35° C 38% 998.7 hPa - - - -
1787893998 36.11° C 35% 998.9 hPa - - - -
1787893397 35.56° C 36% 999.1 hPa - - - -
1787892796 35° C 37% 999.1 hPa - - - -
1787892196 35° C 38% 999.3 hPa - - - -
1787891595 36.11° C 37% 999.5 hPa - - - -
1787890995 36.11° C 37% 999.7 hPa - - - -
1787890393 35° C 38% 999.8 hPa - - - -
1787889792 35° C 39% 1000 hPa - - - -
1787889192 34.44° C 39% 1000.2 hPa - - - -
1787888591 34.44° C 39% 1000.3 hPa - - - -
1787887990 34.44° C 40% 1000.5 hPa - - - -
1787887389 35.56° C 39% 1000.5 hPa - - - -

* Rain since midnight (hover to see other rain measurements)
** Current wind speed in m/s (hover to see current wind gust speed)